[[{"header":{"parameterUnit":"m.s-1","parameterCategory":1,"la1":30.2991,"la2":30.254,"lo1":-89.0895,"lo2":-89.0444,"dy":0.0017,"dx":0.0017,"nx":28,"ny":28,"refTime":"2024-03-31T09:00:00:Z","depth":0,"parameterNumber":2,"parameterNumberName":"U-component_of_WINDS"},"data":[0,0,0,0,0,0,0,0,0,0,0,0,0,0,0,0,0,0,0,0,0,0,0,0,0,0,0,0,0,0,0,0,0,0,0,0,0,0,0,0,0,0,0,0,0,0,0,0,0,0,0,0,0,0,0,0,0,0,-0.6516,-0.6516,0,-0.6535,-0.6536,-0.6536,-0.6537,-0.6537,-0.6537,-0.6536,-0.6559,-0.656,-0.6561,0,0,0,0,0,0,0,0,0,0,0,0,0,-0.6483,-0.6483,-0.6516,-0.6516,-0.6516,-0.6535,-0.6536,-0.6536,-0.6537,-0.6537,-0.6537,-0.6536,-0.6559,-0.656,-0.6561,0,0,0,0,0,0,0,0,0,0,0,0,0,-0.6499,-0.6483,-0.6516,-0.6519,-0.652,-0.6535,-0.6536,-0.6536,-0.6537,-0.6537,-0.6536,-0.6536,-0.6558,-0.656,-0.6561,-0.6575,0,0,-0.6565,-0.6565,0,0,0,0,0,0,0,0,-0.6498,-0.65,-0.6518,-0.6519,-0.652,-0.6533,-0.6532,-0.6549,-0.6537,-0.6531,-0.6536,-0.6536,-0.6551,-0.6553,-0.6557,-0.6576,-0.6577,-0.6565,-0.6565,-0.6566,-0.6566,0,0,0,0,0,0,0,-0.6497,-0.65,-0.6524,-0.6519,-0.6519,-0.6521,-0.6523,-0.6535,-0.6543,-0.6531,-0.6531,-0.6533,-0.6551,-0.6556,-0.6558,-0.6578,-0.6565,-0.6566,-0.6567,-0.6567,-0.6611,-0.6611,0,0,0,0,0,0,-0.6495,-0.6499,-0.6523,-0.6524,-0.6508,-0.6522,-0.6524,-0.6529,-0.6542,-0.6544,-0.6534,-0.6533,-0.6554,-0.6556,-0.6559,-0.6577,-0.6566,-0.6567,-0.6568,-0.661,-0.6611,-0.6611,0,0,0,0,0,0,-0.6494,-0.6497,-0.6522,-0.6511,-0.6515,-0.6522,-0.6529,-0.653,-0.6535,-0.6544,-0.6546,-0.6537,-0.6554,-0.6557,-0.6571,-0.6578,-0.6568,-0.6569,-0.661,-0.6611,-0.6611,-0.6614,0,0,0,0,0,0,-0.6493,-0.6497,-0.6502,-0.6512,-0.6515,-0.6534,-0.6529,-0.6531,-0.6537,-0.6536,-0.6548,-0.655,-0.6554,-0.6569,-0.6572,-0.6579,-0.657,-0.6609,-0.661,-0.6611,-0.6613,-0.6614,-0.6615,0,0,0,0,0,-0.6492,-0.6502,-0.6502,-0.6505,-0.6521,-0.6534,-0.6536,-0.654,-0.6537,-0.6543,-0.6549,-0.6549,-0.6577,-0.6571,-0.6574,-0.6582,-0.6609,-0.661,-0.6611,-0.6612,-0.6614,-0.6615,0,0,0,0,0,0,-0.6493,-0.6503,-0.6503,-0.6516,-0.6524,-0.6534,-0.6541,-0.6542,-0.6551,-0.6551,-0.6556,-0.6559,-0.6573,-0.6579,-0.6572,-0.6597,-0.6593,-0.6594,-0.6593,-0.6594,-0.6595,-0.6594,-0.6571,0,0,0,0,0,-0.6495,-0.6503,-0.6512,-0.6523,-0.6527,-0.6533,-0.6539,-0.6541,-0.655,-0.6553,-0.6561,-0.657,-0.6581,-0.6588,-0.6598,-0.6614,-0.6617,-0.6621,-0.6622,-0.6623,-0.6624,-0.6634,-0.6636,-0.6615,-0.6615,-0.6615,0,0,-0.6499,-0.6505,-0.651,-0.6523,-0.653,-0.6539,-0.6536,-0.6546,-0.6554,-0.6555,-0.6569,-0.6575,-0.6586,-0.6601,-0.6608,-0.6606,-0.6631,-0.6624,-0.6625,-0.6626,-0.6635,-0.6637,-0.6639,-0.6615,-0.6615,-0.6615,0,0,-0.6511,-0.6516,-0.6526,-0.6532,-0.6542,-0.6546,-0.6548,-0.6558,-0.6562,-0.6576,-0.6577,-0.6587,-0.6605,-0.6613,-0.6619,-0.6635,-0.6636,-0.6638,-0.6644,-0.6654,-0.6656,-0.6657,-0.6663,-0.6666,-0.664,-0.664,-0.664,0,-0.6515,-0.6528,-0.6531,-0.6541,-0.6548,-0.6549,-0.6559,-0.6566,-0.6578,-0.6583,-0.6581,-0.6604,-0.6611,-0.6629,-0.6632,-0.6637,-0.6641,-0.6637,-0.6655,-0.6656,-0.6658,-0.6664,-0.6666,-0.664,-0.664,-0.664,-0.664,0,-0.6533,-0.6542,-0.6549,-0.6561,-0.6568,-0.6578,-0.6584,-0.6591,-0.6593,-0.6598,-0.6612,-0.6621,-0.6634,-0.6638,-0.664,-0.6656,-0.6655,-0.6653,-0.6649,-0.666,-0.6666,-0.6668,-0.664,-0.664,-0.664,-0.664,0,0,-0.6546,-0.6559,-0.6562,-0.6567,-0.6578,-0.6586,-0.6597,-0.6608,-0.6614,-0.6623,-0.6633,-0.6649,-0.6648,-0.6655,-0.6659,-0.6667,-0.6679,-0.6665,-0.6665,-0.6668,-0.6699,-0.67,-0.6702,-0.668,-0.6681,-0.6681,-0.6698,0,-0.656,-0.6578,-0.6581,-0.6598,-0.6608,-0.6609,-0.6619,-0.6627,-0.6632,-0.6642,-0.6648,-0.6659,-0.6656,-0.6661,-0.6669,-0.6676,-0.6686,-0.6675,-0.6691,-0.6691,-0.6688,-0.6705,-0.6706,-0.6722,-0.67,-0.6701,-0.6701,0,-0.6578,-0.6586,-0.6604,-0.6614,-0.6618,-0.6626,-0.6637,-0.6646,-0.6656,-0.6659,-0.6667,-0.667,-0.6683,-0.6678,-0.6696,-0.6689,-0.6695,-0.67,-0.6701,-0.6703,-0.6697,-0.6708,-0.6727,-0.6729,-0.6704,-0.6704,-0.6704,0,-0.6587,-0.6603,-0.6615,-0.662,-0.6631,-0.6637,-0.6643,-0.6652,-0.6659,-0.6669,-0.6674,-0.6686,-0.6692,-0.6702,-0.6708,-0.6704,-0.6727,-0.6722,-0.6731,-0.6731,-0.6736,-0.6735,-0.6756,-0.6739,-0.6739,-0.6739,-0.6739,0,-0.6602,-0.6612,-0.6619,-0.6627,-0.6639,-0.6644,-0.6656,-0.6662,-0.667,-0.668,-0.6682,-0.6692,-0.6699,-0.671,-0.6715,-0.673,-0.6733,-0.6737,-0.6738,-0.6737,-0.6736,-0.6741,-0.6741,-0.674,-0.6739,-0.6739,-0.6739,0,-0.6614,-0.6618,-0.6632,-0.6642,-0.6645,-0.6654,-0.6663,-0.6671,-0.6676,-0.6688,-0.6692,-0.67,-0.6713,-0.672,-0.6736,-0.674,-0.6757,-0.6757,-0.6753,-0.6754,-0.6762,-0.6762,-0.6788,-0.6792,-0.6772,-0.6772,-0.6772,0,-0.6623,-0.6631,-0.6642,-0.6648,-0.6653,-0.6663,-0.667,-0.6675,-0.6682,-0.6695,-0.6702,-0.6714,-0.6725,-0.6746,-0.6754,-0.6767,-0.6768,-0.6776,-0.677,-0.6769,-0.6769,-0.6769,-0.677,-0.6778,-0.6778,-0.6778,-0.6778,0,-0.664,-0.6642,-0.6651,-0.6661,-0.6669,-0.6678,-0.6686,-0.6692,-0.6698,-0.6707,-0.6719,-0.6727,-0.6744,-0.6757,-0.677,-0.6777,-0.6779,-0.678,-0.6783,-0.6782,-0.6779,-0.6781,-0.6757,-0.6779,-0.6779,-0.6779,-0.6779,-0.6779,-0.6651,-0.6659,-0.6667,-0.6678,-0.6685,-0.6693,-0.6701,-0.6707,-0.6717,-0.673,-0.6733,-0.6747,-0.6758,-0.6776,-0.6783,-0.6795,-0.6793,-0.6797,-0.6798,-0.6799,-0.68,-0.6777,-0.6797,-0.6797,-0.6797,-0.6797,-0.6797,0,-0.6668,-0.6674,-0.6684,-0.6695,-0.6704,-0.6704,-0.6713,-0.6721,-0.6732,-0.6742,-0.6752,-0.6767,-0.678,-0.6789,-0.6803,-0.681,-0.6812,-0.6814,-0.6814,-0.6815,-0.68,-0.6796,-0.6813,-0.6813,-0.6813,-0.6813,-0.6813,-0.6813,-0.6678,-0.6691,-0.6695,-0.6711,-0.6717,-0.673,-0.6736,-0.6743,-0.6751,-0.6767,-0.6778,-0.6783,-0.6793,-0.6807,-0.682,-0.6822,-0.6827,-0.683,-0.6832,-0.6818,-0.6816,-0.6815,-0.6812,-0.683,-0.683,-0.6847,-0.6847,-0.6847]},{"header":{"parameterUnit":"m.s-1","parameterCategory":1,"la1":30.2991,"la2":30.254,"lo1":-89.0895,"lo2":-89.0444,"dy":0.0017,"dx":0.0017,"nx":28,"ny":28,"refTime":"2024-03-31T09:00:00:Z","depth":0,"parameterNumber":3,"parameterNumberName":"V-component_of_WINDS"},"data":[0,0,0,0,0,0,0,0,0,0,0,0,0,0,0,0,0,0,0,0,0,0,0,0,0,0,0,0,0,0,0,0,0,0,0,0,0,0,0,0,0,0,0,0,0,0,0,0,0,0,0,0,0,0,0,0,0,0,2.5204,2.5204,0,2.5168,2.5168,2.5168,2.5119,2.5118,2.5117,2.5116,2.5079,2.5079,2.5079,0,0,0,0,0,0,0,0,0,0,0,0,0,2.5231,2.523,2.5205,2.5204,2.5204,2.5168,2.5168,2.5167,2.5119,2.5118,2.5117,2.5116,2.5079,2.5079,2.5079,0,0,0,0,0,0,0,0,0,0,0,0,0,2.5209,2.523,2.5205,2.5175,2.5172,2.5169,2.5168,2.5167,2.5119,2.5118,2.5116,2.5115,2.5079,2.5079,2.5079,2.5101,0,0,2.5078,2.5078,0,0,0,0,0,0,0,0,2.5211,2.5209,2.518,2.5177,2.5174,2.5147,2.5164,2.5145,2.5119,2.5139,2.5116,2.5115,2.5103,2.51,2.5096,2.51,2.5098,2.5078,2.5078,2.5077,2.5077,0,0,0,0,0,0,0,2.5212,2.521,2.519,2.5179,2.5176,2.5163,2.5159,2.516,2.5128,2.5137,2.5134,2.513,2.5101,2.5097,2.5095,2.5098,2.5078,2.5078,2.5077,2.5077,2.5116,2.5117,0,0,0,0,0,0,2.5218,2.5211,2.5191,2.5189,2.519,2.5164,2.5159,2.5157,2.5128,2.5123,2.5131,2.5128,2.5098,2.5096,2.5094,2.5117,2.5077,2.5077,2.5077,2.5115,2.5116,2.5118,0,0,0,0,0,0,2.5219,2.5217,2.5193,2.5199,2.5195,2.5165,2.5162,2.5157,2.5152,2.5123,2.5118,2.5133,2.5097,2.5094,2.5099,2.5115,2.5077,2.5077,2.5113,2.5115,2.5117,2.5165,0,0,0,0,0,0,2.522,2.5217,2.5226,2.52,2.5195,2.52,2.5163,2.5157,2.5152,2.5147,2.5123,2.5118,2.5096,2.51,2.5099,2.5114,2.5076,2.5112,2.5114,2.5116,2.5161,2.5168,2.5173,0,0,0,0,0,2.5221,2.5241,2.5227,2.5224,2.5205,2.5201,2.5198,2.5171,2.5154,2.5161,2.5143,2.5119,2.5114,2.5101,2.51,2.5114,2.5111,2.5114,2.5116,2.5159,2.5167,2.5173,0,0,0,0,0,0,2.527,2.5237,2.5221,2.5233,2.522,2.5192,2.5202,2.5181,2.5172,2.5169,2.5136,2.5131,2.514,2.5128,2.5115,2.5134,2.5109,2.5111,2.5142,2.5149,2.5154,2.5157,2.5076,0,0,0,0,0,2.5282,2.5282,2.5253,2.5267,2.5261,2.5233,2.523,2.521,2.5195,2.519,2.5171,2.5158,2.5153,2.515,2.5144,2.516,2.5153,2.5169,2.5175,2.518,2.5182,2.5188,2.5194,2.5127,2.5127,2.5127,0,0,2.5308,2.529,2.5291,2.5276,2.5263,2.5263,2.5228,2.523,2.5229,2.519,2.5193,2.518,2.5162,2.5172,2.5176,2.5162,2.5199,2.5184,2.5188,2.5187,2.5191,2.5198,2.5204,2.5129,2.5128,2.5128,0,0,2.5353,2.534,2.5349,2.5337,2.5319,2.53,2.5302,2.5278,2.5267,2.527,2.524,2.5239,2.5231,2.522,2.5213,2.5253,2.5231,2.5252,2.5283,2.5289,2.5294,2.5298,2.5311,2.5317,2.5255,2.5255,2.5255,0,2.5387,2.5385,2.5357,2.5359,2.5353,2.5318,2.5326,2.5316,2.5297,2.5293,2.5279,2.5267,2.5253,2.526,2.5269,2.5266,2.5266,2.5254,2.5295,2.53,2.5303,2.5315,2.5321,2.5257,2.5257,2.5257,2.5257,0,2.5427,2.5426,2.5436,2.5417,2.5412,2.5418,2.539,2.5388,2.5369,2.5352,2.5355,2.5336,2.5325,2.5326,2.5308,2.5329,2.5321,2.5301,2.5275,2.5313,2.5324,2.5328,2.5261,2.526,2.526,2.5259,0,0,2.5502,2.5467,2.5471,2.5462,2.5439,2.5437,2.5441,2.543,2.5429,2.5417,2.5418,2.5412,2.5394,2.5386,2.5366,2.5372,2.5403,2.5351,2.535,2.536,2.5423,2.5437,2.5443,2.5388,2.5389,2.5389,2.5424,0,2.5542,2.5547,2.5521,2.5532,2.553,2.5497,2.55,2.5486,2.5469,2.5465,2.5447,2.5442,2.5419,2.5414,2.5418,2.5398,2.5415,2.5395,2.5388,2.5388,2.5392,2.5449,2.5464,2.5498,2.5428,2.5429,2.543,0,2.559,2.558,2.5591,2.5565,2.5564,2.5567,2.5554,2.5551,2.5534,2.5521,2.5512,2.5489,2.549,2.5466,2.5467,2.5454,2.5449,2.5439,2.544,2.5437,2.5411,2.5447,2.5508,2.5513,2.5436,2.5436,2.5435,0,2.5642,2.5631,2.5636,2.5629,2.56,2.5603,2.5592,2.5573,2.5568,2.5557,2.5552,2.5542,2.5536,2.5528,2.5502,2.5487,2.5505,2.5479,2.5494,2.5494,2.5498,2.5498,2.5559,2.5498,2.5498,2.5497,2.5497,0,2.5689,2.5697,2.5659,2.5662,2.5669,2.5639,2.5647,2.5632,2.5615,2.5614,2.5585,2.5584,2.5551,2.5546,2.5526,2.5528,2.5526,2.5516,2.551,2.5518,2.5519,2.5513,2.551,2.5499,2.5499,2.5498,2.5498,0,2.5748,2.5723,2.5726,2.5698,2.5692,2.5698,2.5674,2.5675,2.5657,2.5656,2.5653,2.5624,2.5617,2.5591,2.5578,2.5564,2.5573,2.5563,2.5578,2.5574,2.559,2.5589,2.5649,2.5654,2.5591,2.5592,2.5592,0,2.5779,2.5784,2.5757,2.5754,2.5744,2.5739,2.5733,2.5704,2.5699,2.5679,2.5682,2.5673,2.5664,2.5654,2.5631,2.562,2.5609,2.5631,2.5607,2.5614,2.5608,2.5607,2.5607,2.5636,2.5636,2.5637,2.5638,0,2.5837,2.5824,2.5817,2.5805,2.5799,2.5788,2.5776,2.5775,2.5742,2.5738,2.573,2.5723,2.5709,2.5699,2.5684,2.5672,2.5649,2.5645,2.5648,2.5655,2.5664,2.5658,2.5591,2.5644,2.5643,2.5643,2.5643,2.5642,2.5882,2.5885,2.5865,2.5858,2.5845,2.5834,2.5833,2.5815,2.5808,2.5794,2.5777,2.5771,2.5752,2.573,2.5719,2.5713,2.5701,2.5705,2.5706,2.5707,2.571,2.5665,2.571,2.571,2.571,2.571,2.571,0,2.5937,2.5923,2.5916,2.59,2.5894,2.5873,2.5858,2.5854,2.5849,2.5834,2.5825,2.5815,2.5805,2.5782,2.577,2.5769,2.5759,2.5767,2.5766,2.5763,2.5723,2.5721,2.5776,2.5776,2.5776,2.5776,2.5776,2.5776,2.5965,2.5967,2.5952,2.5948,2.5933,2.5927,2.592,2.5909,2.5896,2.5887,2.5879,2.5863,2.5844,2.583,2.582,2.5813,2.5809,2.5821,2.5811,2.5773,2.5766,2.576,2.5759,2.5821,2.5821,2.5852,2.5852,2.5852]}]]